EW6866 Weather Reports


time (UTC)temp
C
wind
direction
speed
KPH
gust
KPH
rain 1hr
cm
rain 24hr
cm
rain mn
cm
humidity
%
barometer
mb
20260901023026 26 270 0.0 3.2 0.00 0.00 0.00 86 1017.6
20260901021504 27 262 0.0 1.6 0.00 0.00 0.00 86 1017.6
20260901020005 27 256 0.0 3.2 0.00 0.00 0.00 85 1017.6
20260901014526 27 241 0.0 6.4 0.00 0.00 0.00 85 1017.5
20260901013005 27 256 0.0 1.6 0.00 0.00 0.00 85 1017.4
20260901011505 27 252 0.0 4.8 0.00 0.00 0.00 84 1017.3
20260901010004 27 280 0.0 4.8 0.00 0.00 0.00 84 1017.2
20260901004505 27 164 0.0 4.8 0.00 0.00 0.00 86 1017.0
20260901003004 27 265 0.0 1.6 0.00 0.00 0.00 86 1016.9
20260901001505 27 267 0.0 1.6 0.00 0.00 0.00 88 1016.8
20260901000004 27 0 0.0 0.0 0.00 0.00 0.00 87 1016.6
20260831234505 27 0 0.0 0.0 0.00 0.00 0.00 86 1016.7
20260831233004 28 0 0.0 0.0 0.00 0.00 0.00 83 1016.6
20260831231525 28 0 0.0 0.0 0.00 0.00 0.00 82 1016.7
20260831230005 28 0 0.0 0.0 0.00 0.00 0.00 80 1016.7
20260831224505 29 56 0.0 1.6 0.00 0.00 0.00 79 1016.9
20260831223004 29 53 0.0 1.6 0.00 0.00 0.00 78 1017.0
20260831221505 30 53 0.0 1.6 0.00 0.00 0.00 76 1016.8
20260831220005 30 51 0.0 1.6 0.00 0.00 0.00 74 1016.8
20260831214526 30 317 0.0 3.2 0.00 0.00 0.00 72 1016.8
20260831213005 31 287 0.0 4.8 0.00 0.00 0.00 64 1016.6
20260831211504 33 262 0.0 3.2 0.00 0.00 0.00 61 1016.6
20260831210005 33 271 0.0 3.2 0.00 0.00 0.00 58 1016.8
20260831204504 33 250 0.0 3.2 0.00 0.00 0.00 57 1016.9
20260831203005 33 251 0.0 1.6 0.00 0.00 0.00 53 1017.0
20260831201505 33 285 0.0 1.6 0.00 0.00 0.00 55 1016.9
20260831200025 33 277 0.0 3.2 0.00 0.00 0.00 50 1016.9
20260831194505 33 239 0.0 3.2 0.00 0.00 0.00 50 1017.1
20260831193025 33 177 0.0 1.6 0.00 0.00 0.00 50 1017.2
20260831191504 32 269 0.0 4.8 0.00 0.00 0.00 52 1017.4
20260831190005 32 259 1.6 6.4 0.00 0.00 0.00 62 1017.5
20260831184504 32 251 1.6 6.4 0.00 0.00 0.00 65 1017.6
20260831183004 31 250 1.6 6.4 0.00 0.00 0.00 68 1017.7
20260831181504 31 267 1.6 8.0 0.00 0.00 0.00 71 1017.9
20260831180004 31 250 1.6 8.0 0.00 0.00 0.00 72 1017.9
20260831174526 31 267 1.6 4.8 0.00 0.00 0.00 73 1018.0
20260831173004 31 233 1.6 6.4 0.00 0.00 0.00 74 1018.1
20260831171504 31 268 1.6 6.4 0.00 0.00 0.00 74 1018.3
20260831170004 31 264 1.6 8.0 0.00 0.00 0.00 74 1018.3
20260831164504 32 131 0.0 3.2 0.00 0.00 0.00 73 1018.5
20260831163004 31 272 0.0 3.2 0.00 0.00 0.00 72 1018.5
20260831161504 31 228 0.0 4.8 0.00 0.00 0.00 72 1018.6
20260831160004 31 271 0.0 4.8 0.00 0.00 0.00 73 1018.6
20260831154504 31 171 0.0 1.6 0.00 0.00 0.00 71 1018.6
20260831153003 31 74 0.0 1.6 0.00 0.00 0.00 73 1018.5
20260831151504 30 86 0.0 1.6 0.00 0.00 0.00 74 1018.7
20260831150004 30 194 0.0 1.6 0.00 0.00 0.00 76 1018.7
20260831144504 29 0 0.0 0.0 0.00 0.00 0.00 81 1018.8
20260831143004 28 91 0.0 3.2 0.00 0.00 0.00 82 1018.8
20260831141504 27 100 0.0 3.2 0.00 0.00 0.00 84 1018.7
20260831140004 27 110 0.0 1.6 0.00 0.00 0.00 87 1018.4
20260831134504 26 125 0.0 1.6 0.00 0.00 0.00 90 1018.3
20260831133025 25 105 0.0 1.6 0.00 0.00 0.00 92 1018.3
20260831131503 25 0 0.0 0.0 0.00 0.00 0.00 96 1018.4
20260831130004 24 141 0.0 1.6 0.00 0.00 0.00 98 1018.1
20260831124504 23 0 0.0 0.0 0.00 0.00 0.00 99 1018.1
20260831123003 23 131 0.0 1.6 0.00 0.00 0.00 99 1018.2
20260831121504 22 115 0.0 1.6 0.00 0.00 0.00 99 1018.3
20260831120025 22 0 0.0 0.0 0.00 0.00 0.00 99 1018.4
20260831114503 21 0 0.0 0.0 0.00 0.00 0.00 99 1018.5
20260831113004 21 0 0.0 0.0 0.00 0.00 0.00 99 1018.4
20260831111504 21 0 0.0 0.0 0.00 0.00 0.00 99 1018.5
20260831110003 21 0 0.0 0.0 0.00 0.00 0.00 98 1018.3
20260831104504 21 0 0.0 0.0 0.00 0.00 0.00 98 1018.1
20260831103004 21 0 0.0 0.0 0.00 0.00 0.00 98 1018.0
20260831101505 21 246 0.0 1.6 0.00 0.00 0.00 98 1017.9
20260831100003 21 0 0.0 0.0 0.00 0.00 0.00 98 1017.9
20260831094504 21 0 0.0 0.0 0.00 0.00 0.00 98 1017.8
20260831093003 21 0 0.0 0.0 0.00 0.00 0.00 98 1017.9
20260831091503 21 0 0.0 0.0 0.00 0.00 0.00 98 1018.1
20260831090004 22 0 0.0 0.0 0.00 0.00 0.00 98 1018.0
20260831084503 22 0 0.0 0.0 0.00 0.00 0.00 98 1018.0
20260831083004 22 0 0.0 0.0 0.00 0.00 0.00 98 1017.8
20260831081504 22 0 0.0 0.0 0.00 0.00 0.00 98 1017.8
20260831080003 22 0 0.0 0.0 0.00 0.00 0.00 98 1017.9
20260831074505 22 0 0.0 0.0 0.00 0.00 0.00 98 1017.9
20260831073026 22 0 0.0 0.0 0.00 0.00 0.00 98 1018.1
20260831071526 22 0 0.0 0.0 0.00 0.00 0.00 98 1018.0
20260831070005 22 0 0.0 0.0 0.00 0.00 0.00 98 1018.1
20260831064505 22 0 0.0 0.0 0.00 0.00 0.00 98 1018.1
20260831063005 22 0 0.0 0.0 0.00 0.00 0.00 97 1018.2
20260831061505 23 0 0.0 0.0 0.00 0.00 0.00 98 1018.2
20260831060005 23 0 0.0 0.0 0.00 0.00 0.00 97 1018.4
20260831054505 23 230 0.0 1.6 0.00 0.00 0.00 98 1018.6
20260831053005 23 0 0.0 0.0 0.00 0.00 0.00 97 1018.7
20260831051505 23 0 0.0 0.0 0.00 0.00 0.00 97 1018.7
20260831050005 23 0 0.0 0.0 0.00 0.00 0.00 97 1018.8
20260831044505 23 0 0.0 0.0 0.00 0.00 0.00 97 1018.9
20260831043025 23 0 0.0 0.0 0.00 0.00 0.00 97 1018.8
20260831041505 23 0 0.0 0.0 0.00 0.00 0.00 97 1018.9
20260831040027 23 0 0.0 0.0 0.00 0.00 0.00 96 1018.8
20260831034526 23 0 0.0 0.0 0.00 0.00 0.00 96 1018.7
20260831033025 23 0 0.0 0.0 0.00 0.00 0.00 96 1018.9
20260831031505 23 0 0.0 0.0 0.00 0.00 0.00 96 1018.8
20260831030026 23 0 0.0 0.0 0.00 0.00 0.00 96 1018.8
20260831024504 23 0 0.0 0.0 0.00 0.00 0.00 95 1019.0